Wind_Speed
9 9 10 11 12 13 14 15 15 15 16 17 18 17 17 17 17 16 15 15 15 14 13 12 10 9 10 12 7 5 4 9 10 8 5 6 6 4 7 19 8 11 2 9 11 10 11
11 11 12 13 14 15 16 16 16 17 18 18 18 18 18 18 17 16 15 15 15 15 14 13 12 12 12 13 8 5 9 10 12 9 8 5 2 8 4 15 20 11 5 4 13 12 14
14 14 15 15 15 16 16 16 17 17 18 18 18 18 18 18 17 17 16 15 16 15 15 14 15 15 16 9 7 9 9 11 14 11 11 8 6 17 15 21 11 16 8 7 7 19 16
16 17 17 17 18 18 18 18 18 18 18 18 17 18 18 18 17 16 16 16 16 16 15 15 16 18 18 13 15 15 8 12 15 13 8 5 10 13 14 17 9 7 12 6 4 10 14
16 17 17 18 19 20 20 20 19 20 19 19 18 17 17 17 16 15 15 15 16 16 16 16 17 19 13 13 15 11 11 14 11 12 7 7 14 10 6 11 19 5 10 6 5 14 6
19 19 19 19 19 19 19 20 20 20 20 19 19 19 18 17 15 14 13 12 13 14 15 17 20 16 8 8 10 9 13 14 12 10 9 9 10 5 10 16 12 15 9 7 15 21 9
19 21 21 22 22 22 21 20 19 19 20 19 18 19 18 17 16 14 11 8 5 5 14 18 16 18 9 6 3 11 10 13 13 12 14 11 12 4 4 4 2 18 16 16 12 8 12
19 20 20 21 22 22 23 23 22 21 20 19 18 17 17 17 15 13 11 9 11 10 22 19 24 25 17 10 14 14 13 17 17 18 14 15 15 12 1 3 5 19 5 7 14 19 21
18 19 20 21 21 22 22 22 22 22 22 20 18 17 17 15 14 11 9 8 16 17 24 23 26 29 21 11 11 18 18 19 19 20 18 17 12 19 12 8 9 10 8 14 27 14 23
19 18 18 19 20 20 21 21 21 21 20 20 19 16 16 14 11 8 6 5 11 6 18 23 25 31 32 18 16 20 18 20 21 20 17 18 19 12 11 15 16 14 8 13 14 25 33
20 21 20 19 19 20 19 20 20 20 19 19 19 17 16 14 10 9 11 10 8 5 5 7 11 22 24 32 18 24 24 21 25 21 20 23 17 11 11 16 13 15 16 22 17 29 19
22 21 21 21 19 19 19 20 19 19 19 18 18 18 16 14 11 16 13 8 12 4 10 1 12 13 16 27 24 18 22 25 22 23 22 25 20 24 18 11 12 10 7 25 30 32 16
24 23 22 22 21 20 19 18 19 18 17 17 17 19 16 16 13 15 16 14 6 9 4 11 15 18 20 25 27 26 24 25 27 22 27 20 14 16 16 15 16 11 12 17 8 8 2
27 27 26 24 22 21 20 18 17 18 17 15 17 18 17 14 18 17 19 19 11 13 18 4 13 15 22 23 28 27 25 29 32 26 19 27 14 27 13 20 14 14 18 15 4 1 7
28 27 26 25 23 21 20 18 17 16 16 13 15 17 16 16 20 20 22 23 19 20 9 12 11 17 18 20 21 27 31 30 29 29 33 24 26 20 22 20 17 20 20 18 11 11 6
27 27 27 24 22 21 20 18 16 15 14 11 11 12 12 18 20 23 26 32 34 27 13 19 20 7 10 22 24 30 30 32 32 30 28 32 27 11 20 15 17 19 20 16 1 5 3
26 26 26 25 23 21 19 17 16 12 12 9 6 3 6 15 22 26 33 34 32 24 14 11 17 16 16 17 16 28 33 24 27 26 32 27 32 19 15 22 18 21 22 21 16 10 8
25 25 25 25 23 22 20 18 15 11 8 6 6 8 9 6 10 24 31 28 24 25 17 23 22 22 20 18 20 13 32 34 24 30 32 37 31 26 22 15 23 19 31 26 22 8 14
24 25 25 25 24 23 21 19 15 11 6 5 8 16 13 13 12 15 18 21 22 21 19 16 17 21 22 22 19 12 12 6 32 29 36 30 38 10 5 1 8 27 26 28 29 26 27
24 24 23 24 24 23 21 18 17 11 6 4 8 11 12 18 15 15 19 22 23 15 20 21 20 22 16 21 15 19 14 4 8 16 32 14 22 27 14 15 16 22 31 35 29 27 21
24 24 24 23 24 24 22 18 16 12 6 4 9 9 6 15 19 17 19 22 21 22 25 20 22 16 19 22 21 18 16 11 4 14 12 17 11 15 19 8 11 32 18 31 33 37 26
23 24 25 25 24 24 23 20 15 12 6 7 17 18 17 17 13 8 8 16 21 20 19 19 21 23 22 23 20 18 18 17 13 11 12 17 17 13 15 19 15 36 20 21 30 27 31
22 24 25 25 24 24 23 22 18 13 9 9 14 16 20 23 21 8 2 11 16 18 23 15 15 21 20 19 21 24 27 27 25 17 14 17 13 20 21 24 24 23 16 18 11 12 17
23 24 25 25 24 24 22 21 21 17 12 10 12 15 17 24 21 15 16 14 14 19 23 23 13 10 19 15 14 18 27 24 18 17 12 20 17 20 17 15 8 16 17 16 14 13 15
25 25 26 25 25 24 23 22 20 19 16 13 13 14 16 21 19 18 18 14 12 17 9 19 13 7 13 17 11 15 19 22 20 20 17 11 19 17 21 19 18 14 8 10 16 10 7
27 28 27 27 25 25 23 22 21 20 18 14 15 15 17 19 11 19 13 7 6 12 15 15 14 8 8 8 5 10 8 18 13 24 21 18 14 14 10 11 6 20 12 11 13 5 7
27 27 28 28 28 27 25 23 22 20 18 17 14 15 17 22 16 20 23 18 12 12 9 10 14 17 13 12 14 15 19 18 23 23 29 28 26 24 18 16 10 3 11 15 14 6 13
28 29 29 30 30 30 27 25 22 20 18 16 18 17 19 24 17 20 27 27 25 23 16 12 7 8 18 20 19 19 16 23 24 26 27 29 28 29 24 18 4 8 6 10 12 10 10
28 29 30 32 30 30 29 26 22 19 18 14 14 19 20 22 13 16 23 30 27 18 30 23 13 7 2 10 14 22 19 17 14 19 28 21 16 35 20 13 6 2 3 14 11 7 8
Wind_Direction
280 277 272 267 265 265 266 267 267 269 271 270 270 272 274 275 275 274 271 270 270 269 265 264 262 254 240 231 192 269 262 232 217 206 186 176 90 275 329 263 172 197 342 180 118 119 140
280 276 272 269 268 268 269 271 274 274 272 272 273 273 273 273 272 272 270 269 268 265 260 258 258 253 245 237 256 293 268 229 216 205 152 115 21 276 311 147 198 326 350 156 146 145 138
282 279 277 274 273 273 274 274 273 273 275 276 276 275 274 273 272 271 269 267 265 262 256 252 255 255 247 213 228 254 247 223 212 202 172 149 279 274 299 304 257 224 300 48 110 162 155
288 286 284 281 278 276 275 275 275 275 274 274 276 276 276 276 274 272 269 264 261 259 255 251 254 258 253 217 227 235 211 224 203 204 180 237 272 248 249 292 304 281 297 10 94 108 151
292 291 289 287 286 285 282 279 276 275 276 276 275 275 276 277 277 274 270 264 258 257 253 249 251 257 265 234 243 223 206 228 207 204 196 255 271 251 213 229 300 328 303 32 119 143 233
291 289 287 286 286 285 284 282 282 279 276 274 275 275 274 276 277 274 271 264 260 259 257 248 247 251 245 297 224 228 206 220 193 234 225 237 274 281 286 267 215 254 310 120 215 164 208
295 293 290 287 285 283 282 281 281 280 280 279 274 272 274 274 275 271 265 255 229 282 264 247 240 243 212 84 188 236 216 218 180 221 229 230 243 262 214 68 103 284 238 302 245 220 217
304 298 293 290 288 286 283 281 279 280 279 278 277 275 274 273 269 266 257 238 214 236 261 244 232 238 202 199 237 221 216 208 193 217 222 240 237 177 164 274 2 157 246 217 162 179 245
313 306 300 296 292 288 285 282 278 275 275 275 273 272 270 268 263 261 262 256 232 264 281 248 233 227 189 205 213 220 208 208 210 218 222 234 256 217 218 241 229 161 325 197 266 256 226
327 316 307 299 293 291 289 286 282 277 272 269 270 267 263 261 256 238 197 186 238 275 304 278 235 228 201 189 222 208 210 213 220 219 227 243 242 225 241 232 239 205 160 262 266 295 201
336 331 321 311 304 294 288 287 284 280 274 268 263 263 260 248 236 202 205 201 188 202 279 349 224 224 214 200 198 212 199 218 222 223 227 244 242 211 232 264 215 178 228 240 279 280 261
338 333 329 321 312 303 295 288 284 280 276 268 261 253 251 241 226 206 206 198 164 182 245 241 154 182 195 206 213 214 213 212 227 229 235 260 256 234 230 236 260 234 198 216 266 270 269
337 332 327 324 319 311 301 292 283 280 275 268 260 251 241 238 222 220 207 189 149 231 208 218 188 183 204 208 214 218 216 213 211 224 240 239 241 208 231 247 239 248 201 260 280 258 254
339 335 330 325 321 318 311 300 288 279 274 268 259 251 237 225 221 209 199 180 215 236 229 76 211 195 203 209 217 219 224 217 217 220 230 239 222 224 225 233 232 232 251 237 86 230 293
343 340 334 326 321 319 315 309 299 284 277 270 260 253 233 216 215 206 202 191 215 227 221 340 344 194 204 203 215 212 224 225 216 220 234 239 241 231 230 231 235 248 246 248 121 84 18
346 346 345 339 326 324 321 316 307 296 285 278 262 253 229 219 208 207 209 214 226 223 266 307 309 243 240 207 210 221 218 232 221 218 228 236 256 257 226 230 221 239 254 281 41 118 170
348 350 351 348 342 334 329 323 315 306 293 283 250 217 248 213 205 207 216 226 234 240 252 278 310 271 280 293 263 214 225 231 234 221 222 228 244 249 222 238 254 255 258 253 270 191 150
349 350 351 350 349 343 338 332 328 314 298 270 210 126 227 245 232 223 226 231 242 243 238 262 267 268 273 291 302 317 224 227 225 224 222 224 233 242 239 267 278 255 238 248 243 244 239
350 351 352 353 351 348 345 339 337 328 303 250 197 146 201 257 249 239 246 251 245 259 258 260 273 258 259 277 302 301 278 239 235 227 223 225 220 193 152 355 253 234 226 247 254 253 272
351 350 350 352 353 352 348 345 339 338 319 248 190 178 211 236 276 250 243 252 263 264 254 243 266 253 255 271 269 283 285 287 267 220 222 243 213 233 224 243 261 211 241 268 246 238 249
351 351 350 350 350 350 351 350 341 340 322 243 201 205 214 206 239 253 260 251 248 250 246 250 250 246 242 269 271 265 263 270 297 226 217 226 221 234 225 279 241 211 234 247 258 245 246
351 351 351 350 351 350 348 351 345 338 317 252 225 237 224 228 235 246 277 258 250 256 258 253 244 247 248 260 263 261 255 262 287 280 260 239 234 251 269 266 282 206 230 251 263 245 245
346 349 349 349 350 351 350 348 347 337 322 278 266 267 264 232 243 245 278 292 270 264 257 263 250 234 237 241 252 249 252 258 277 276 277 236 258 240 256 257 274 277 268 264 264 248 264
336 339 341 340 343 344 346 346 343 341 326 308 288 275 264 255 241 230 267 277 277 255 265 250 250 272 216 231 256 243 239 252 261 253 251 225 242 227 237 238 237 256 253 277 279 311 226
326 329 332 332 332 333 337 339 340 338 331 313 300 287 274 263 248 217 241 254 267 237 257 243 223 259 233 245 280 276 256 259 248 245 232 223 234 223 226 239 252 266 270 269 233 197 206
325 327 329 328 327 326 326 327 331 331 330 318 296 288 279 268 265 234 235 229 283 258 230 227 229 236 221 229 237 255 261 264 270 262 232 244 239 263 260 222 245 258 257 216 205 159 212
324 326 326 326 325 324 320 315 316 321 320 321 299 287 274 269 232 237 229 225 214 226 223 212 245 239 227 245 244 253 254 250 253 258 261 259 259 264 266 257 254 100 225 242 283 242 254
325 326 324 321 320 321 320 316 307 307 309 312 309 292 284 275 261 240 232 227 223 219 220 222 205 188 221 224 239 240 256 250 253 246 243 249 255 252 247 247 197 274 212 184 162 160 192
327 326 325 322 320 319 320 314 310 300 301 300 307 300 287 279 267 249 242 235 233 233 220 206 192 139 311 196 219 235 253 279 297 282 246 227 232 221 225 179 153 242 215 162 185 201 269
Height
3164 3163 3163 3163 3163 3163 3162 3162 3162 3161 3161 3161 3160 3160 3159 3159 3159 3159 3159 3159 3159 3159 3159 3159 3158 3158 3157 3157 3156 3156 3159 3162 3164 3167 3169 3171 3176 3180 3176 3176 3173 3168 3168 3166 3171 3175 3176
3162 3161 3161 3160 3160 3159 3159 3159 3158 3158 3157 3157 3157 3156 3156 3155 3155 3155 3155 3155 3155 3155 3156 3156 3156 3155 3155 3155 3154 3154 3157 3160 3163 3166 3169 3170 3176 3180 3176 3173 3174 3170 3160 3166 3167 3175 3175
3160 3159 3158 3158 3157 3156 3156 3155 3154 3154 3153 3153 3153 3152 3152 3151 3151 3152 3152 3152 3152 3152 3152 3153 3153 3152 3151 3153 3153 3152 3155 3158 3161 3164 3168 3167 3172 3174 3175 3171 3171 3170 3160 3163 3167 3168 3174
3157 3156 3155 3154 3153 3152 3152 3151 3151 3150 3150 3149 3149 3148 3148 3147 3147 3147 3148 3148 3148 3148 3149 3150 3149 3148 3146 3150 3150 3149 3151 3156 3158 3162 3164 3167 3170 3169 3170 3171 3171 3169 3166 3165 3168 3168 3169
3154 3152 3151 3150 3149 3148 3148 3147 3146 3146 3146 3145 3144 3144 3143 3143 3143 3143 3143 3144 3144 3145 3145 3146 3146 3145 3145 3147 3147 3147 3149 3153 3157 3160 3163 3166 3168 3167 3168 3166 3166 3165 3165 3168 3171 3172 3171
3150 3148 3147 3146 3145 3144 3143 3143 3142 3141 3140 3140 3140 3140 3140 3139 3139 3139 3140 3140 3140 3141 3141 3142 3141 3146 3143 3143 3144 3145 3147 3151 3155 3159 3162 3164 3165 3164 3167 3166 3166 3166 3170 3172 3174 3178 3171
3146 3144 3142 3141 3140 3139 3138 3138 3137 3136 3136 3136 3135 3135 3135 3135 3135 3136 3137 3138 3140 3140 3136 3137 3138 3138 3139 3140 3143 3145 3146 3149 3153 3158 3159 3161 3165 3164 3164 3164 3164 3160 3165 3170 3172 3172 3173
3142 3140 3138 3136 3135 3134 3133 3132 3132 3131 3131 3131 3131 3130 3130 3131 3132 3132 3133 3134 3134 3133 3129 3129 3131 3131 3134 3136 3138 3143 3146 3148 3150 3154 3157 3161 3161 3164 3163 3163 3165 3159 3164 3162 3163 3169 3172
3138 3136 3134 3132 3130 3128 3127 3126 3126 3126 3126 3126 3126 3126 3127 3127 3128 3130 3131 3133 3133 3133 3126 3122 3122 3126 3131 3134 3133 3139 3143 3145 3147 3151 3154 3157 3159 3160 3161 3161 3165 3167 3165 3163 3164 3166 3170
3135 3131 3129 3127 3125 3123 3122 3121 3121 3120 3120 3120 3121 3121 3122 3124 3127 3126 3127 3129 3131 3130 3126 3113 3115 3116 3124 3130 3131 3136 3140 3144 3146 3148 3153 3155 3156 3158 3158 3160 3166 3172 3169 3159 3158 3160 3165
3133 3130 3126 3123 3120 3118 3116 3116 3115 3114 3114 3115 3115 3117 3118 3120 3122 3123 3125 3124 3126 3130 3128 3111 3109 3114 3119 3123 3128 3130 3135 3140 3142 3146 3152 3152 3153 3153 3152 3158 3167 3168 3170 3160 3157 3157 3160
3131 3127 3123 3120 3116 3113 3112 3110 3109 3109 3109 3109 3110 3111 3113 3115 3118 3120 3121 3122 3125 3130 3119 3109 3108 3111 3116 3120 3125 3130 3133 3137 3141 3144 3146 3148 3148 3155 3155 3156 3159 3159 3162 3160 3155 3155 3158
3129 3124 3120 3116 3113 3109 3107 3105 3104 3103 3103 3104 3104 3106 3108 3110 3115 3116 3119 3122 3124 3121 3110 3108 3108 3111 3114 3118 3122 3126 3130 3133 3136 3142 3141 3143 3142 3145 3150 3154 3159 3156 3161 3158 3155 3151 3153
3126 3122 3117 3113 3110 3106 3103 3100 3099 3098 3097 3098 3099 3100 3103 3107 3109 3112 3114 3118 3117 3107 3104 3106 3110 3109 3111 3116 3119 3123 3125 3129 3133 3138 3139 3140 3141 3142 3143 3149 3152 3155 3156 3152 3159 3160 3157
3123 3118 3113 3109 3105 3102 3099 3097 3095 3093 3092 3093 3093 3094 3098 3102 3103 3107 3110 3109 3104 3103 3103 3106 3104 3105 3109 3112 3117 3119 3120 3124 3128 3133 3134 3136 3136 3139 3141 3142 3148 3150 3150 3151 3154 3161 3162
3121 3115 3110 3105 3101 3099 3096 3094 3091 3090 3089 3089 3089 3090 3093 3095 3099 3102 3104 3101 3097 3100 3101 3103 3103 3105 3106 3108 3111 3115 3115 3118 3122 3126 3131 3129 3133 3133 3135 3138 3142 3146 3148 3149 3152 3160 3169
3120 3114 3109 3104 3099 3095 3092 3089 3089 3086 3086 3086 3086 3087 3088 3091 3094 3096 3094 3096 3097 3099 3104 3105 3102 3102 3103 3104 3108 3106 3110 3113 3116 3121 3125 3128 3130 3134 3134 3137 3136 3141 3140 3144 3146 3147 3152
3119 3114 3109 3103 3098 3094 3090 3088 3085 3085 3083 3084 3085 3088 3086 3089 3093 3092 3091 3095 3097 3095 3098 3099 3103 3102 3101 3101 3102 3101 3103 3106 3109 3113 3116 3120 3124 3126 3130 3131 3131 3132 3134 3138 3139 3141 3140
3119 3114 3109 3104 3099 3094 3090 3087 3083 3082 3081 3081 3083 3086 3090 3088 3087 3088 3090 3091 3092 3093 3094 3096 3099 3100 3100 3099 3100 3098 3098 3100 3103 3105 3109 3113 3116 3121 3124 3127 3126 3125 3129 3133 3135 3136 3135
3118 3113 3108 3103 3098 3094 3089 3085 3083 3081 3080 3080 3083 3086 3087 3086 3086 3087 3088 3089 3090 3091 3092 3092 3095 3097 3096 3097 3097 3096 3095 3097 3097 3097 3102 3107 3106 3111 3117 3122 3127 3129 3130 3124 3129 3132 3131
3116 3113 3108 3103 3098 3093 3089 3085 3083 3080 3079 3080 3079 3080 3080 3083 3083 3084 3085 3084 3084 3085 3091 3091 3091 3092 3093 3093 3094 3093 3093 3094 3098 3099 3100 3104 3102 3106 3111 3114 3117 3129 3125 3120 3122 3125 3127
3115 3111 3106 3102 3097 3092 3088 3084 3082 3080 3078 3078 3076 3076 3078 3078 3079 3079 3078 3079 3081 3080 3083 3085 3086 3089 3091 3090 3091 3090 3091 3091 3096 3098 3097 3098 3099 3103 3104 3108 3112 3120 3113 3111 3118 3119 3121
3114 3110 3105 3101 3096 3091 3087 3083 3081 3079 3077 3076 3075 3074 3073 3074 3075 3077 3075 3078 3079 3079 3076 3079 3082 3084 3086 3087 3088 3087 3085 3086 3089 3092 3094 3095 3098 3100 3101 3106 3108 3110 3111 3113 3112 3112 3118
3111 3108 3104 3100 3095 3091 3087 3083 3080 3077 3075 3073 3071 3071 3070 3067 3069 3071 3070 3071 3072 3074 3072 3072 3075 3077 3083 3079 3079 3081 3081 3082 3084 3086 3090 3092 3093 3096 3099 3103 3105 3104 3106 3107 3109 3111 3112
3108 3104 3100 3096 3093 3089 3086 3082 3078 3075 3073 3070 3068 3067 3065 3061 3065 3067 3062 3063 3063 3064 3066 3067 3072 3073 3072 3074 3077 3079 3080 3078 3080 3081 3083 3088 3091 3092 3094 3096 3099 3101 3102 3103 3107 3112 3108
3106 3101 3096 3092 3089 3086 3082 3079 3076 3073 3070 3067 3065 3063 3061 3059 3059 3059 3061 3061 3061 3062 3063 3065 3068 3069 3070 3071 3075 3079 3079 3079 3080 3079 3080 3083 3086 3090 3091 3093 3096 3098 3096 3097 3099 3103 3104
3100 3097 3093 3089 3085 3081 3078 3074 3072 3069 3067 3064 3061 3059 3057 3053 3055 3053 3057 3057 3057 3058 3063 3063 3062 3066 3070 3072 3074 3077 3077 3079 3078 3078 3077 3079 3080 3083 3087 3088 3093 3092 3090 3093 3099 3105 3099
3096 3092 3088 3084 3080 3076 3072 3068 3066 3064 3062 3060 3056 3054 3053 3048 3050 3049 3049 3051 3054 3056 3058 3059 3062 3064 3068 3070 3073 3074 3073 3073 3077 3076 3076 3077 3077 3077 3082 3085 3088 3086 3089 3093 3096 3096 3096
3091 3086 3082 3079 3073 3069 3066 3062 3059 3057 3057 3055 3053 3049 3047 3043 3045 3043 3043 3046 3050 3056 3055 3057 3060 3060 3063 3064 3067 3068 3070 3069 3070 3068 3070 3073 3069 3074 3077 3079 3081 3082 3086 3089 3093 3096 3094